Location: Mesa Vista Observatory
(35.5777°N, 105.6987°W)
Time: 06:01:40
(UTC-06:00)

Vanguard 3 - Visible Passes

Search period start: 26 September 2020 00:00
Search period end: 06 October 2020 00:00
Orbit: 508 x 3262 km, 33.3° (Epoch: 25 September)

Date Brightness Start Highest point End Pass type
(mag) Time Alt. Az. Time Alt. Az. Time Alt. Az.
26 Sep 7.4 20:39:28 10° W 20:43:08 40° SSW 20:43:34 39° S visible
27 Sep 6.7 19:26:01 10° W 19:29:34 53° S 19:33:38 11° ESE visible
27 Sep 9.2 21:37:28 10° WSW 21:38:12 14° WSW 21:38:12 14° WSW visible
28 Sep 7.7 20:23:49 10° W 20:27:12 31° SSW 20:28:18 27° SSE visible
29 Sep 7.0 19:10:09 10° W 19:13:41 45° SSW 19:17:33 10° ESE visible
29 Sep 9.2 21:22:18 10° WSW 21:23:01 13° SW 21:23:01 13° SW visible
30 Sep 8.0 20:08:11 10° WSW 20:11:15 24° SSW 20:13:11 17° SSE visible
01 Oct 9.2 21:07:52 10° SW 21:07:59 10° SW 21:07:59 10° SW visible
02 Oct 8.4 19:52:37 10° WSW 19:55:16 19° SSW 19:58:07 10° SSE visible
04 Oct 8.8 19:37:12 10° WSW 19:39:13 14° SSW 19:41:16 10° S visible
